Location: Kelshall
(52.0000°N, 0.0500°W)
Time: 13:13:52
(UTC+00:00)

Cosmos 2263 Rocket - Pass Details

Date: 18 September 2020
Orbit: 822 x 849 km, 71.0° (Epoch: 21 October)

Event Time Altitude Azimuth Distance (km) Brightness Sun altitude
Rises 19:31:52 0° 216° (SW) 3,349 5.5 -13.6°
Reaches altitude 10° 19:34:17 10° 219° (SW) 2,422 4.8 -13.9°
Maximum altitude 19:39:49 70° 303° (WNW) 881 2.5 -14.7°
Drops below altitude 10° 19:45:26 10° 28° (NNE) 2,451 4.6 -15.5°
Sets 19:47:54 0° 31° (NNE) 3,392 5.3 -15.9°
